Vereeniging Airport

Jump to: basic info | weather | frequencies | runways | comments

Related pages: nearby airports | nearby navaids | notams | map

Basic information (top)

Codes: FAVV
Location: lon -26.566401, lat 27.960800, elev 4,846 ft / 1,477 m msl
Status: medium_airport

Weather (top)

Current conditions (rec'd 2014/04/23 16:00Z):

FAVV 231600Z AUTO 00000KT //// // ////// 16/09 Q1015

Airport forecast for OR Tambo International Airport 30nm (55km) NNE (rec'd 2014/04/20 00:00Z):

TAF FAOR 202200Z 2100/2206 33006KT CAVOK 
      BECMG 2108/2110 33010KT SCT040 
      BECMG 2117/2119 28006KT CAVOK TX23/2112ZTN11/2104Z

Frequencies (top)

Verify before use: may be inaccurate or out of date.

CTAF: 122.1 MHz (CTAF)

Runways (top)

03/21: 5,266 x 72 ft (1,605 x 22 m) — paved — lighted — threshold 21 displaced 260 ft (79 m)

15/33: 3,724 x 52 ft (1,135 x 16 m) — paved — not lighted

Latest comments (top)

Information: Good day this is Mpho, i just need to ... [read]

More... (top)

See also NOTAMs and nearby airports and navaids, or visit the Vereeniging Airport page at the main OurAirports website..